SCP
0 0 0 0 0 0 0 0 0 0 0 0 0 0 0 0 0 0 0 0 -0 0 0 0 0 0 1 1 2 3 2 2 2 0 0 0 0 0 0 0 0 0 0 0
0 0 0 0 0 0 0 0 0 0 0 0 0 0 0 0 0 0 0 0 0 0 0 0 0 1 1 1 1 1 1 1 0 0 0 0 0 0 0 0 0 0 0 0
0 0 0 0 0 0 0 0 0 0 0 0 0 0 0 0 0 0 0 0 0 0 0 0 0 1 1 1 0 1 1 0 0 0 0 0 0 0 0 0 0 0 0 0
0 0 0 0 0 0 0 0 0 0 0 0 0 0 0 0 0 0 0 0 0 0 0 0 0 0 0 0 0 0 0 0 0 0 0 0 0 0 0 0 0 0 0 0
0 0 0 0 0 0 0 0 0 0 0 0 0 0 0 0 0 0 0 0 0 0 0 0 0 0 0 0 0 0 0 0 0 0 0 0 0 0 0 0 0 0 0 0
0 0 0 0 0 0 0 0 0 0 0 0 0 0 0 0 0 0 0 0 0 0 1 1 0 0 0 0 0 0 0 0 0 0 0 0 0 0 0 0 0 0 0 0
0 0 0 0 0 0 0 0 0 0 0 0 0 0 0 0 0 0 0 0 0 0 0 0 0 0 0 0 0 0 0 0 0 0 0 0 0 0 0 0 0 0 0 0
0 0 0 0 0 0 0 0 0 0 0 0 0 0 0 0 0 0 0 0 0 1 1 0 0 0 0 0 0 0 0 0 0 0 0 0 0 0 0 0 0 0 0 0
0 0 0 0 0 0 0 0 0 0 0 0 0 0 0 0 0 0 0 0 0 0 0 0 0 0 0 0 0 0 0 0 0 0 0 0 0 0 0 0 0 0 0 0
0 0 0 0 0 0 0 0 0 0 0 0 0 0 0 0 0 0 0 0 0 0 0 0 0 0 0 0 0 0 0 0 0 0 0 0 0 0 0 0 0 0 0 0
0 0 0 0 0 0 0 0 0 0 0 0 0 0 0 0 0 0 0 0 0 0 0 0 0 0 0 0 0 0 0 0 0 0 0 0 0 0 0 0 0 0 0 0
0 0 0 0 0 0 0 0 0 0 0 0 0 0 0 0 0 0 0 0 0 0 0 0 0 0 0 0 0 0 0 0 0 0 0 0 0 0 0 0 0 0 0 0
0 0 0 0 0 0 0 0 0 0 0 0 0 0 0 0 0 -0 -0 -0 -0 0 0 0 0 0 0 0 0 0 0 0 0 0 0 0 0 0 0 0 0 0 0 0
0 0 0 0 0 0 0 0 0 0 0 0 -0 -0 -0 -0 -0 0 0 0 0 0 0 0 0 0 0 0 0 0 0 0 0 0 0 0 0 0 0 0 0 0 0 0
0 0 0 0 0 0 0 0 0 0 0 0 0 0 0 0 0 0 0 0 0 0 0 0 0 0 0 0 0 0 0 0 0 0 0 0 0 0 0 0 0 0 0 0
0 0 0 0 0 0 0 0 0 0 0 0 0 0 0 0 0 0 -0 0 0 0 0 0 0 0 0 0 0 0 0 0 0 0 0 0 0 0 0 0 0 0 0 0
0 0 0 0 0 0 0 0 0 0 0 0 0 0 0 0 0 0 0 0 0 0 0 0 0 0 0 0 0 0 0 0 0 0 0 0 0 0 0 0 0 0 0 0
0 0 0 0 0 0 0 0 0 0 0 0 0 0 0 0 0 0 0 0 0 0 0 0 0 0 0 0 0 0 0 0 0 0 0 0 0 0 0 0 0 0 0 0
0 0 0 0 0 0 0 0 0 0 0 0 0 0 0 0 0 0 0 0 0 0 0 0 0 0 0 0 0 0 0 0 0 0 0 0 0 0 0 0 0 0 0 0
0 0 0 0 0 0 0 0 0 0 0 0 0 0 0 0 0 0 0 0 0 0 0 0 0 0 0 0 0 0 0 0 0 0 0 0 0 0 0 0 0 0 0 0
0 0 0 0 0 0 0 0 0 0 0 0 0 0 0 0 0 0 0 0 0 0 0 0 0 0 0 0 0 0 0 0 0 0 0 0 0 0 0 0 0 0 0 0
0 0 0 0 0 0 0 0 0 0 0 0 0 0 0 0 0 0 0 0 0 0 0 0 0 0 0 0 0 0 0 0 0 0 0 0 0 0 0 0 0 0 0 0
0 0 0 0 0 0 0 0 0 0 0 0 0 0 0 0 0 0 0 0 0 0 0 0 0 0 0 0 0 0 0 0 0 0 0 0 0 0 0 0 0 0 0 0
0 0 0 0 0 0 0 0 0 0 0 0 0 0 0 0 0 0 0 0 0 0 0 0 0 0 0 0 0 0 0 0 -0 -0 0 0 0 0 0 0 0 0 0 0
0 0 0 0 0 0 0 0 0 0 0 0 0 0 0 0 0 0 0 0 0 0 0 0 0 0 0 0 0 -0 0 0 0 0 0 0 0 0 0 0 0 0 0 0
0 0 0 0 0 0 0 0 0 0 0 0 0 0 0 0 0 0 0 0 0 0 0 0 -0 -0 0 0 0 0 0 0 0 0 0 0 0 0 0 0 0 0 0 0
0 0 0 -0 -0 0 0 0 0 0 0 0 0 -0 -0 0 0 0 0 0 0 0 0 0 0 0 0 0 0 0 0 0 0 0 0 0 0 0 0 0 0 0 0 0
Wind_Speed_500mb
17 25 18 17 14 20 18 14 17 14 21 21 21 24 41 47 34 41 47 45 48 48 49 48 53 54 54 56 58 57 58 65 67 58 49 52 50 30 31 38 40 33 27 21
22 27 20 20 29 20 22 6 10 9 15 20 9 22 24 49 50 53 56 56 55 50 50 48 44 38 37 40 39 42 49 56 53 50 49 49 32 23 30 33 30 28 24 21
13 28 9 8 31 24 13 11 15 12 23 12 11 17 42 60 67 71 67 61 51 45 38 30 24 14 9 10 21 32 36 37 41 43 49 41 28 26 29 26 26 25 22 22
8 11 8 27 38 30 33 27 20 10 13 19 27 54 64 75 86 82 74 58 47 42 39 34 27 23 17 18 21 25 31 36 40 43 42 35 25 24 27 27 25 22 21 20
8 10 9 11 11 18 20 37 24 28 14 12 17 25 11 74 82 77 55 49 47 44 40 37 33 27 22 22 24 31 38 40 39 40 43 29 24 26 30 26 25 24 20 20
5 11 16 22 10 14 11 16 17 33 24 20 34 10 11 53 62 49 52 53 52 48 42 37 32 25 20 18 24 26 25 29 31 38 36 26 22 29 28 27 23 22 21 19
9 8 14 8 12 9 15 21 20 50 47 45 15 13 42 54 59 51 49 48 44 43 38 28 17 12 11 18 23 24 27 29 31 38 30 27 28 33 28 26 25 26 22 21
5 8 15 4 1 18 6 20 36 49 36 36 45 65 73 80 71 60 54 46 37 34 26 15 6 6 14 16 19 22 23 26 31 33 32 33 33 31 28 26 29 26 23 28
17 13 4 6 10 22 18 15 4 42 48 67 70 80 84 83 74 68 58 47 31 24 20 18 13 13 18 24 26 21 19 22 29 35 38 33 34 35 31 30 30 24 26 31
11 4 5 11 22 26 21 34 43 58 78 93 97 88 82 73 61 50 39 33 26 16 14 16 23 39 38 39 33 26 22 29 36 41 38 34 37 37 33 28 27 25 22 25
7 8 24 7 28 69 68 61 72 80 93 93 93 76 66 57 48 35 27 20 14 18 20 18 17 22 30 26 26 26 26 31 37 41 36 33 40 37 32 25 23 21 32 35
10 26 13 16 44 69 94 101 96 80 86 75 65 63 48 36 30 21 14 14 15 11 15 20 17 11 18 16 20 22 23 23 33 40 37 33 37 36 32 26 24 29 28 13
9 33 55 62 63 75 103 88 88 73 50 60 47 31 21 25 18 16 14 4 12 13 7 3 7 6 8 9 18 21 19 18 26 35 34 36 33 36 29 22 26 27 14 21
65 94 56 58 51 64 86 79 70 61 43 47 40 35 28 23 17 10 9 7 13 9 4 6 5 5 2 8 12 15 17 17 23 28 26 26 28 31 19 20 22 18 25 24
58 66 88 72 64 60 55 52 52 47 46 34 29 25 21 4 14 15 18 14 12 18 22 11 9 8 12 14 12 14 13 11 15 17 20 24 22 21 19 21 20 26 32 32
85 78 67 63 54 45 38 35 33 34 26 27 25 22 16 9 11 14 12 13 21 27 14 10 13 14 18 14 11 11 14 16 16 13 12 18 22 19 19 21 22 33 35 32
65 54 51 42 37 31 26 26 21 23 19 19 17 17 18 12 6 10 17 20 23 18 14 15 10 13 10 11 13 13 14 16 19 21 16 17 17 15 14 15 20 33 32 28
41 37 36 41 44 42 34 32 25 17 15 12 11 14 14 9 6 7 10 20 20 17 13 12 12 11 10 10 7 9 13 17 20 18 16 11 9 8 10 14 24 32 33 25
43 45 40 36 32 29 26 20 13 7 6 10 13 16 18 18 16 18 15 14 13 15 14 13 13 11 9 8 7 7 4 6 11 12 11 11 8 10 13 15 22 25 28 28
41 35 28 26 21 15 11 6 4 1 4 9 13 17 17 15 17 20 20 20 19 19 17 17 16 13 11 10 10 8 9 7 7 12 13 13 17 15 12 17 25 25 32 17
28 24 22 16 11 10 7 6 9 11 13 12 13 15 15 17 22 22 21 21 25 19 17 14 12 9 4 5 9 13 12 6 3 6 10 12 13 13 13 20 26 29 22 26
22 17 13 9 9 10 11 13 11 10 10 10 11 10 11 12 14 18 22 20 16 15 13 8 5 4 2 6 12 15 14 9 7 8 11 12 13 15 13 21 24 20 22 27
12 9 7 5 6 8 8 5 4 2 2 5 7 6 5 5 7 12 13 15 15 14 11 6 5 10 13 15 18 17 11 9 10 8 11 13 15 20 16 18 18 20 27 25
12 11 20 21 19 13 10 12 12 11 12 6 4 6 9 10 7 6 5 12 17 15 13 13 24 24 20 22 22 19 20 23 22 19 17 15 12 17 19 16 13 21 25 20
13 25 21 22 25 31 30 24 17 11 8 4 4 7 11 8 2 5 8 11 16 14 17 27 27 20 15 10 10 12 11 10 11 9 10 10 11 13 12 12 12 19 19 14
27 19 15 13 13 15 18 21 22 22 15 7 10 6 5 3 2 5 10 16 22 21 20 21 19 14 12 12 9 6 9 9 8 6 6 11 13 11 10 12 17 18 14 11
18 12 9 8 7 8 10 11 11 14 19 19 12 3 2 1 8 12 22 28 22 19 21 20 18 13 7 5 8 7 8 10 13 13 10 11 13 9 9 12 16 15 15 16
Wind_Direction_500mb
236 224 193 209 186 171 181 188 187 225 198 236 225 210 216 214 203 196 201 206 212 218 225 231 239 246 250 253 255 257 253 253 251 249 246 251 263 250 226 227 237 249 265 270
234 231 209 220 229 207 217 158 234 175 241 226 291 208 191 202 195 196 196 200 207 212 217 224 235 241 249 256 262 261 258 258 254 245 242 243 241 229 227 238 249 261 267 266
239 229 134 274 229 205 191 188 166 172 227 166 203 207 205 202 199 196 199 204 206 208 212 202 196 200 232 273 268 259 257 258 247 244 237 231 239 240 251 254 254 262 266 275
204 79 181 242 246 210 221 230 204 222 224 195 214 217 218 208 199 200 204 199 183 171 164 161 166 181 189 222 248 258 260 257 246 241 228 229 238 259 261 251 259 268 265 276
176 174 275 302 194 170 169 240 202 210 220 184 169 143 215 206 205 204 199 177 163 159 161 164 173 181 190 207 229 243 252 255 250 234 224 229 239 267 253 246 254 258 257 270
147 158 198 225 249 232 113 235 206 195 193 160 155 142 240 200 203 184 171 165 160 158 162 165 168 170 192 221 244 254 264 260 245 229 220 228 255 264 243 246 255 249 252 266
188 203 277 242 300 327 137 227 186 201 191 169 179 194 160 162 156 155 149 144 141 137 141 141 151 180 225 256 260 263 268 257 230 215 220 234 260 245 235 242 247 248 244 259
133 151 252 44 326 163 234 304 206 188 183 170 141 135 142 142 136 134 128 125 128 129 124 117 103 32 323 298 270 266 262 253 225 220 227 242 250 228 228 239 243 244 249 269
178 205 186 216 236 292 290 265 218 164 153 140 120 120 125 121 122 124 129 122 110 98 90 75 39 343 297 275 277 272 266 248 226 226 231 246 238 224 231 241 241 249 271 274
131 76 335 123 120 97 97 118 120 131 130 132 123 122 117 114 108 101 92 81 82 68 16 20 343 298 292 278 263 259 250 240 230 224 234 250 233 231 232 245 248 266 266 278
59 83 81 47 120 114 105 117 118 124 123 122 119 117 113 109 102 94 82 71 52 17 354 349 318 303 274 275 264 251 252 245 233 238 244 246 228 236 229 248 261 270 290 280
195 185 114 148 130 130 125 122 120 119 120 114 108 110 109 105 100 91 71 47 13 357 343 351 358 307 265 264 261 250 247 241 242 243 247 239 242 233 234 267 272 295 302 258
142 134 128 129 124 125 124 123 116 115 120 107 102 102 101 123 144 158 163 174 335 326 43 32 6 307 335 300 265 256 247 243 244 252 247 261 243 236 272 262 282 293 243 191
133 131 102 117 108 120 119 118 121 135 119 111 108 106 110 108 104 70 28 110 181 191 213 262 288 343 304 261 269 256 245 231 244 247 254 261 252 267 248 265 271 231 189 188
130 121 118 115 113 107 109 118 122 116 111 110 112 114 102 130 159 152 179 184 187 212 225 244 319 290 266 268 280 261 245 235 234 247 259 258 252 238 254 258 257 204 192 188
118 117 120 114 113 113 110 105 97 106 128 133 134 104 131 152 201 215 218 210 217 216 231 261 283 286 288 284 259 237 231 244 250 251 255 252 245 240 247 253 230 200 197 199
113 112 120 115 117 112 112 116 123 140 141 133 131 151 138 169 238 268 252 231 206 211 230 251 275 302 298 272 263 261 256 255 250 253 270 261 246 231 227 235 213 191 195 201
111 116 118 119 119 116 115 110 115 117 123 137 165 186 186 188 211 232 206 174 188 212 242 261 309 305 282 280 262 265 269 260 244 240 231 216 201 185 191 206 188 189 190 189
115 117 117 117 116 117 115 115 120 128 166 189 204 209 209 209 209 194 192 197 219 241 244 273 287 276 270 272 262 252 233 154 178 196 200 192 202 196 181 177 180 187 193 180
119 119 121 117 111 93 85 97 115 145 254 238 239 243 236 232 226 216 215 225 234 236 248 275 276 279 287 261 224 217 193 190 212 218 214 214 209 208 198 201 186 188 170 169
116 119 112 103 87 61 33 326 304 301 303 297 282 269 262 250 241 239 218 227 232 242 254 249 268 289 286 191 194 190 187 197 184 196 202 193 196 194 182 171 164 179 183 183
115 106 85 44 356 333 320 314 323 320 310 308 308 291 266 252 240 218 206 211 224 239 225 223 266 281 227 213 201 194 189 188 184 145 130 144 158 150 156 180 175 177 184 184
112 94 64 20 25 20 21 28 34 349 342 45 49 92 120 117 146 176 189 209 211 203 192 183 170 127 121 132 140 144 145 143 130 148 157 161 156 147 155 176 188 206 193 188
128 103 105 82 68 67 66 61 67 74 84 92 105 118 95 105 107 128 174 179 183 182 176 175 155 136 126 118 117 107 95 92 92 103 107 119 132 155 153 140 151 171 182 189
125 131 107 92 76 66 62 59 57 67 82 84 103 149 154 154 217 232 206 192 184 189 174 164 167 169 173 160 139 137 118 107 102 96 89 117 137 132 134 145 168 185 186 200
131 128 117 95 70 57 50 48 48 48 48 65 101 126 147 350 347 171 166 160 151 146 157 173 183 190 200 202 199 188 181 180 181 174 155 146 152 151 146 163 179 183 189 187
127 118 98 79 47 14 3 7 15 27 37 47 54 71 211 154 146 149 152 151 147 144 147 146 149 142 130 140 156 158 176 170 163 162 160 169 155 145 157 159 166 166 163 151
Wind_Speed_850mb
17 25 18 17 14 20 18 14 17 14 21 21 21 24 41 47 34 41 47 45 48 48 49 48 53 54 54 56 58 57 58 65 67 58 49 52 50 30 31 38 40 33 27 21
22 27 20 20 29 20 22 6 10 9 15 20 9 22 24 49 50 53 56 56 55 50 50 48 44 38 37 40 39 42 49 56 53 50 49 49 32 23 30 33 30 28 24 21
13 28 9 8 31 24 13 11 15 12 23 12 11 17 42 60 67 71 67 61 51 45 38 30 24 14 9 10 21 32 36 37 41 43 49 41 28 26 29 26 26 25 22 22
8 11 8 27 38 30 33 27 20 10 13 19 27 54 64 75 86 82 74 58 47 42 39 34 27 23 17 18 21 25 31 36 40 43 42 35 25 24 27 27 25 22 21 20
8 10 9 11 11 18 20 37 24 28 14 12 17 25 11 74 82 77 55 49 47 44 40 37 33 27 22 22 24 31 38 40 39 40 43 29 24 26 30 26 25 24 20 20
5 11 16 22 10 14 11 16 17 33 24 20 34 10 11 53 62 49 52 53 52 48 42 37 32 25 20 18 24 26 25 29 31 38 36 26 22 29 28 27 23 22 21 19
9 8 14 8 12 9 15 21 20 50 47 45 15 13 42 54 59 51 49 48 44 43 38 28 17 12 11 18 23 24 27 29 31 38 30 27 28 33 28 26 25 26 22 21
5 8 15 4 1 18 6 20 36 49 36 36 45 65 73 80 71 60 54 46 37 34 26 15 6 6 14 16 19 22 23 26 31 33 32 33 33 31 28 26 29 26 23 28
17 13 4 6 10 22 18 15 4 42 48 67 70 80 84 83 74 68 58 47 31 24 20 18 13 13 18 24 26 21 19 22 29 35 38 33 34 35 31 30 30 24 26 31
11 4 5 11 22 26 21 34 43 58 78 93 97 88 82 73 61 50 39 33 26 16 14 16 23 39 38 39 33 26 22 29 36 41 38 34 37 37 33 28 27 25 22 25
7 8 24 7 28 69 68 61 72 80 93 93 93 76 66 57 48 35 27 20 14 18 20 18 17 22 30 26 26 26 26 31 37 41 36 33 40 37 32 25 23 21 32 35
10 26 13 16 44 69 94 101 96 80 86 75 65 63 48 36 30 21 14 14 15 11 15 20 17 11 18 16 20 22 23 23 33 40 37 33 37 36 32 26 24 29 28 13
9 33 55 62 63 75 103 88 88 73 50 60 47 31 21 25 18 16 14 4 12 13 7 3 7 6 8 9 18 21 19 18 26 35 34 36 33 36 29 22 26 27 14 21
65 94 56 58 51 64 86 79 70 61 43 47 40 35 28 23 17 10 9 7 13 9 4 6 5 5 2 8 12 15 17 17 23 28 26 26 28 31 19 20 22 18 25 24
58 66 88 72 64 60 55 52 52 47 46 34 29 25 21 4 14 15 18 14 12 18 22 11 9 8 12 14 12 14 13 11 15 17 20 24 22 21 19 21 20 26 32 32
85 78 67 63 54 45 38 35 33 34 26 27 25 22 16 9 11 14 12 13 21 27 14 10 13 14 18 14 11 11 14 16 16 13 12 18 22 19 19 21 22 33 35 32
65 54 51 42 37 31 26 26 21 23 19 19 17 17 18 12 6 10 17 20 23 18 14 15 10 13 10 11 13 13 14 16 19 21 16 17 17 15 14 15 20 33 32 28
41 37 36 41 44 42 34 32 25 17 15 12 11 14 14 9 6 7 10 20 20 17 13 12 12 11 10 10 7 9 13 17 20 18 16 11 9 8 10 14 24 32 33 25
43 45 40 36 32 29 26 20 13 7 6 10 13 16 18 18 16 18 15 14 13 15 14 13 13 11 9 8 7 7 4 6 11 12 11 11 8 10 13 15 22 25 28 28
41 35 28 26 21 15 11 6 4 1 4 9 13 17 17 15 17 20 20 20 19 19 17 17 16 13 11 10 10 8 9 7 7 12 13 13 17 15 12 17 25 25 32 17
28 24 22 16 11 10 7 6 9 11 13 12 13 15 15 17 22 22 21 21 25 19 17 14 12 9 4 5 9 13 12 6 3 6 10 12 13 13 13 20 26 29 22 26
22 17 13 9 9 10 11 13 11 10 10 10 11 10 11 12 14 18 22 20 16 15 13 8 5 4 2 6 12 15 14 9 7 8 11 12 13 15 13 21 24 20 22 27
12 9 7 5 6 8 8 5 4 2 2 5 7 6 5 5 7 12 13 15 15 14 11 6 5 10 13 15 18 17 11 9 10 8 11 13 15 20 16 18 18 20 27 25
12 11 20 21 19 13 10 12 12 11 12 6 4 6 9 10 7 6 5 12 17 15 13 13 24 24 20 22 22 19 20 23 22 19 17 15 12 17 19 16 13 21 25 20
13 25 21 22 25 31 30 24 17 11 8 4 4 7 11 8 2 5 8 11 16 14 17 27 27 20 15 10 10 12 11 10 11 9 10 10 11 13 12 12 12 19 19 14
27 19 15 13 13 15 18 21 22 22 15 7 10 6 5 3 2 5 10 16 22 21 20 21 19 14 12 12 9 6 9 9 8 6 6 11 13 11 10 12 17 18 14 11
18 12 9 8 7 8 10 11 11 14 19 19 12 3 2 1 8 12 22 28 22 19 21 20 18 13 7 5 8 7 8 10 13 13 10 11 13 9 9 12 16 15 15 16
Wind_Direction_850mb
236 224 193 209 186 171 181 188 187 225 198 236 225 210 216 214 203 196 201 206 212 218 225 231 239 246 250 253 255 257 253 253 251 249 246 251 263 250 226 227 237 249 265 270
234 231 209 220 229 207 217 158 234 175 241 226 291 208 191 202 195 196 196 200 207 212 217 224 235 241 249 256 262 261 258 258 254 245 242 243 241 229 227 238 249 261 267 266
239 229 134 274 229 205 191 188 166 172 227 166 203 207 205 202 199 196 199 204 206 208 212 202 196 200 232 273 268 259 257 258 247 244 237 231 239 240 251 254 254 262 266 275
204 79 181 242 246 210 221 230 204 222 224 195 214 217 218 208 199 200 204 199 183 171 164 161 166 181 189 222 248 258 260 257 246 241 228 229 238 259 261 251 259 268 265 276
176 174 275 302 194 170 169 240 202 210 220 184 169 143 215 206 205 204 199 177 163 159 161 164 173 181 190 207 229 243 252 255 250 234 224 229 239 267 253 246 254 258 257 270
147 158 198 225 249 232 113 235 206 195 193 160 155 142 240 200 203 184 171 165 160 158 162 165 168 170 192 221 244 254 264 260 245 229 220 228 255 264 243 246 255 249 252 266
188 203 277 242 300 327 137 227 186 201 191 169 179 194 160 162 156 155 149 144 141 137 141 141 151 180 225 256 260 263 268 257 230 215 220 234 260 245 235 242 247 248 244 259
133 151 252 44 326 163 234 304 206 188 183 170 141 135 142 142 136 134 128 125 128 129 124 117 103 32 323 298 270 266 262 253 225 220 227 242 250 228 228 239 243 244 249 269
178 205 186 216 236 292 290 265 218 164 153 140 120 120 125 121 122 124 129 122 110 98 90 75 39 343 297 275 277 272 266 248 226 226 231 246 238 224 231 241 241 249 271 274
131 76 335 123 120 97 97 118 120 131 130 132 123 122 117 114 108 101 92 81 82 68 16 20 343 298 292 278 263 259 250 240 230 224 234 250 233 231 232 245 248 266 266 278
59 83 81 47 120 114 105 117 118 124 123 122 119 117 113 109 102 94 82 71 52 17 354 349 318 303 274 275 264 251 252 245 233 238 244 246 228 236 229 248 261 270 290 280
195 185 114 148 130 130 125 122 120 119 120 114 108 110 109 105 100 91 71 47 13 357 343 351 358 307 265 264 261 250 247 241 242 243 247 239 242 233 234 267 272 295 302 258
142 134 128 129 124 125 124 123 116 115 120 107 102 102 101 123 144 158 163 174 335 326 43 32 6 307 335 300 265 256 247 243 244 252 247 261 243 236 272 262 282 293 243 191
133 131 102 117 108 120 119 118 121 135 119 111 108 106 110 108 104 70 28 110 181 191 213 262 288 343 304 261 269 256 245 231 244 247 254 261 252 267 248 265 271 231 189 188
130 121 118 115 113 107 109 118 122 116 111 110 112 114 102 130 159 152 179 184 187 212 225 244 319 290 266 268 280 261 245 235 234 247 259 258 252 238 254 258 257 204 192 188
118 117 120 114 113 113 110 105 97 106 128 133 134 104 131 152 201 215 218 210 217 216 231 261 283 286 288 284 259 237 231 244 250 251 255 252 245 240 247 253 230 200 197 199
113 112 120 115 117 112 112 116 123 140 141 133 131 151 138 169 238 268 252 231 206 211 230 251 275 302 298 272 263 261 256 255 250 253 270 261 246 231 227 235 213 191 195 201
111 116 118 119 119 116 115 110 115 117 123 137 165 186 186 188 211 232 206 174 188 212 242 261 309 305 282 280 262 265 269 260 244 240 231 216 201 185 191 206 188 189 190 189
115 117 117 117 116 117 115 115 120 128 166 189 204 209 209 209 209 194 192 197 219 241 244 273 287 276 270 272 262 252 233 154 178 196 200 192 202 196 181 177 180 187 193 180
119 119 121 117 111 93 85 97 115 145 254 238 239 243 236 232 226 216 215 225 234 236 248 275 276 279 287 261 224 217 193 190 212 218 214 214 209 208 198 201 186 188 170 169
116 119 112 103 87 61 33 326 304 301 303 297 282 269 262 250 241 239 218 227 232 242 254 249 268 289 286 191 194 190 187 197 184 196 202 193 196 194 182 171 164 179 183 183
115 106 85 44 356 333 320 314 323 320 310 308 308 291 266 252 240 218 206 211 224 239 225 223 266 281 227 213 201 194 189 188 184 145 130 144 158 150 156 180 175 177 184 184
112 94 64 20 25 20 21 28 34 349 342 45 49 92 120 117 146 176 189 209 211 203 192 183 170 127 121 132 140 144 145 143 130 148 157 161 156 147 155 176 188 206 193 188
128 103 105 82 68 67 66 61 67 74 84 92 105 118 95 105 107 128 174 179 183 182 176 175 155 136 126 118 117 107 95 92 92 103 107 119 132 155 153 140 151 171 182 189
125 131 107 92 76 66 62 59 57 67 82 84 103 149 154 154 217 232 206 192 184 189 174 164 167 169 173 160 139 137 118 107 102 96 89 117 137 132 134 145 168 185 186 200
131 128 117 95 70 57 50 48 48 48 48 65 101 126 147 350 347 171 166 160 151 146 157 173 183 190 200 202 199 188 181 180 181 174 155 146 152 151 146 163 179 183 189 187
127 118 98 79 47 14 3 7 15 27 37 47 54 71 211 154 146 149 152 151 147 144 147 146 149 142 130 140 156 158 176 170 163 162 160 169 155 145 157 159 166 166 163 151